EHI
4 6 7 7 7 6 6 6 6 6 6 6 6 6 6 6 6 5 4 3 3 3 4 6 7 8 8 6 4 4 3 3 3 3 3 3 3 3 3 3 4 5 6
5 6 7 7 7 6 6 6 6 6 6 6 6 6 6 6 5 3 2 1 2 3 3 6 7 8 8 6 5 4 3 3 3 3 3 3 3 3 3 3 4 5 6
5 6 7 7 7 6 6 6 6 6 6 6 6 6 6 6 5 2 0 0 2 3 3 5 7 7 7 6 5 4 3 3 3 3 3 3 3 3 3 3 4 5 6
5 6 6 6 6 6 6 6 6 6 6 6 6 6 6 6 5 3 1 1 1 2 3 4 6 6 5 4 4 4 4 4 4 4 3 3 3 3 3 3 3 4 4
4 5 6 6 6 6 6 6 6 5 5 5 5 6 6 6 5 4 2 1 1 2 2 3 4 4 4 3 3 4 5 6 6 5 4 3 3 3 3 3 3 3 3
4 4 6 6 6 6 6 6 6 5 4 4 5 5 5 4 4 3 2 2 3 3 3 4 3 3 3 3 3 3 5 7 7 5 3 3 3 3 3 3 3 3 3
3 4 5 6 6 6 6 6 5 4 4 4 4 4 4 3 2 1 1 2 4 5 6 5 4 4 4 4 4 4 5 7 7 5 3 3 3 3 3 3 3 3 3
3 3 3 4 5 6 5 4 4 3 3 4 3 3 1 1 1 0 0 1 4 5 6 6 5 6 6 5 5 5 5 6 6 4 3 3 3 4 4 4 4 4 4
3 3 1 1 3 4 4 3 3 3 3 3 3 1 0 0 0 0 0 2 3 4 5 5 5 6 7 6 5 6 6 7 6 4 3 3 4 5 6 6 6 6 6
3 2 1 0 1 2 3 3 3 4 4 4 3 2 1 0 0 0 0 1 2 3 3 4 5 6 6 6 6 6 7 6 4 2 2 3 5 6 6 6 6 6 6
3 3 1 0 0 1 2 3 3 3 3 4 3 2 1 1 0 0 0 1 1 1 1 3 4 5 5 6 6 6 6 4 3 2 3 4 5 6 7 7 7 6 6
3 3 2 1 0 0 1 3 3 2 1 2 2 2 2 2 1 0 0 0 0 0 0 1 3 4 5 5 4 4 4 3 2 3 4 5 5 6 7 8 7 6 6
3 3 2 1 0 0 1 2 2 1 0 1 2 2 3 2 1 0 0 0 1 1 1 1 2 3 4 3 2 1 1 1 1 1 2 4 5 5 7 8 8 7 7
3 3 3 2 1 0 0 1 2 1 1 2 3 3 4 3 1 0 0 0 1 2 2 2 2 3 3 2 1 0 0 0 0 0 1 4 5 5 6 8 10 10 9
2 3 3 2 1 0 0 0 1 1 2 3 3 3 4 3 2 0 0 0 1 1 1 2 2 3 3 2 1 0 0 0 0 0 1 4 7 7 7 8 11 13 14
1 1 2 3 2 0 0 0 0 1 2 2 2 1 1 1 1 0 0 0 0 0 0 1 2 3 3 2 1 0 0 1 1 1 1 3 7 9 9 9 10 13 14
0 1 2 2 2 1 1 0 0 0 1 1 1 0 0 0 0 0 0 0 0 0 0 1 3 3 3 2 1 0 0 1 2 1 0 2 5 8 10 11 10 11 12
1 2 3 3 2 2 2 1 0 0 0 0 0 0 0 0 0 0 0 0 0 0 1 2 3 3 3 2 1 0 0 1 2 1 0 1 3 5 8 10 10 10 11
1 3 5 5 4 3 3 2 1 1 0 0 0 0 0 0 0 0 0 0 0 1 2 3 3 3 3 2 0 0 0 0 1 0 0 1 3 3 5 7 8 10 12
1 3 5 6 5 4 4 3 3 2 1 0 0 0 0 0 0 0 0 1 1 2 3 3 3 3 3 2 1 0 0 1 1 1 1 2 3 3 4 5 7 9 11
4 5 6 7 6 6 5 4 4 3 2 1 0 0 0 0 0 0 1 2 3 3 3 3 3 4 4 4 2 1 0 1 3 3 3 4 3 3 4 6 8 9 9
7 7 7 7 7 6 6 6 6 5 3 1 0 0 0 0 0 1 2 3 4 3 3 3 3 3 4 4 4 2 0 2 3 3 4 5 4 4 4 6 8 9 9
8 8 8 9 8 8 8 8 7 6 4 2 2 1 1 1 0 1 3 4 4 4 3 4 3 3 3 5 6 5 3 3 4 3 3 5 5 5 4 5 6 8 9
7 8 10 11 12 11 12 11 9 6 5 5 4 3 2 1 1 2 4 4 4 4 4 5 4 4 5 6 8 8 7 7 7 5 4 4 5 5 5 4 4 5 6
6 8 10 13 14 14 15 15 12 7 4 4 5 5 4 3 3 4 5 6 6 6 6 5 5 5 6 8 9 10 10 10 11 9 5 4 5 5 5 4 4 4 5
6 7 9 14 16 16 15 16 15 9 4 4 5 7 7 5 4 6 6 7 8 8 7 6 5 5 6 8 11 11 11 11 12 10 7 4 4 4 5 5 4 5 6
Wind_Speed
4 6 8 7 8 8 8 9 11 11 12 12 12 13 12 12 11 11 12 12 11 11 11 10 11 11 11 10 10 10 9 9 9 9 9 8 8 8 8 8 7 8 10
6 8 9 7 8 8 9 9 11 12 12 12 12 12 12 11 11 11 11 11 11 11 11 10 10 10 10 10 9 9 9 8 9 9 9 8 8 8 7 5 2 7 9
8 8 9 7 8 9 9 10 11 12 12 12 12 12 11 11 10 10 11 11 11 11 11 10 10 10 9 9 8 8 8 8 8 7 7 7 8 8 7 6 6 8 8
8 8 9 9 9 10 10 10 11 12 12 12 11 11 11 10 10 10 10 10 10 10 10 9 9 9 8 8 8 8 7 7 7 6 4 5 6 8 7 7 7 7 8
8 8 11 8 10 11 11 11 11 12 12 11 11 10 10 10 10 9 9 9 9 9 8 8 8 8 8 7 7 7 6 6 5 5 3 4 5 8 6 7 7 7 7
8 9 11 8 10 11 11 11 11 11 11 11 11 10 10 10 9 9 9 9 8 8 7 7 7 7 7 7 6 5 5 5 6 4 4 4 5 7 6 6 6 7 7
9 9 11 9 9 10 10 11 11 11 11 10 11 10 9 9 9 9 9 9 8 7 6 6 6 7 6 6 5 5 4 4 4 3 3 3 5 7 6 6 6 6 6
9 9 11 10 9 9 10 10 10 10 10 10 10 10 9 8 8 8 8 8 7 6 6 6 6 6 5 5 5 4 3 5 4 3 3 4 6 6 6 6 6 6 6
8 8 8 9 9 10 10 9 10 10 9 10 9 9 8 8 7 7 7 6 6 5 6 6 5 5 4 4 4 3 3 4 5 2 3 3 7 6 6 5 5 6 6
8 7 7 7 7 8 10 10 9 9 9 9 8 8 8 8 7 7 7 6 4 4 5 5 5 4 4 4 4 4 5 7 4 2 2 5 7 6 6 5 6 6 6
7 6 6 7 6 6 7 9 8 9 8 8 8 8 6 5 6 6 6 5 4 4 4 4 4 4 4 6 6 6 7 4 2 1 1 7 6 6 6 6 6 7 7
7 7 5 5 5 5 5 5 4 5 6 4 4 5 4 3 2 3 7 4 3 4 5 4 4 6 7 4 7 9 4 3 2 2 4 7 5 5 5 6 7 7 7
7 6 6 6 4 4 3 3 2 2 3 4 5 4 3 2 3 2 3 4 4 5 3 4 5 2 1 1 2 2 1 2 1 1 4 7 5 5 6 6 7 7 8
6 6 5 6 5 3 2 2 2 2 2 2 4 3 2 1 1 1 1 1 1 2 1 1 1 0 1 1 2 2 2 2 1 1 3 6 5 6 6 7 7 8 8
6 5 5 4 4 3 3 1 2 2 2 3 3 3 2 2 2 1 1 0 1 1 2 1 1 1 2 2 2 2 3 3 2 2 2 6 6 6 6 6 7 7 7
6 6 5 5 5 3 3 2 1 1 2 2 2 2 1 1 1 1 1 1 1 0 0 1 1 1 2 2 3 3 4 4 3 3 3 4 8 7 7 6 7 7 7
5 5 5 5 5 4 3 2 2 1 2 2 2 2 2 1 1 1 1 1 0 0 1 1 1 2 2 2 3 3 4 4 3 3 4 3 4 8 8 7 7 7 8
5 5 5 4 5 4 3 2 1 1 1 1 1 2 2 1 2 2 1 1 1 1 1 1 2 2 2 3 3 3 3 3 4 4 4 3 3 3 6 7 7 7 8
5 5 5 4 5 4 4 3 3 2 2 2 1 1 2 2 2 2 1 0 2 2 2 3 0 2 2 3 3 3 3 3 3 4 3 4 3 4 3 5 7 7 7
5 5 5 5 4 4 4 3 2 2 2 2 2 1 2 2 2 2 2 1 3 2 2 2 2 2 3 3 4 3 3 3 3 3 4 3 3 4 4 3 4 6 8
5 5 5 5 5 4 3 3 3 3 2 2 2 2 2 2 2 2 2 1 2 2 2 3 3 2 2 2 3 3 2 3 2 3 3 2 3 3 3 3 4 3 3
6 6 6 6 5 5 4 3 2 2 2 2 1 2 2 2 2 2 2 2 2 2 2 2 2 3 2 1 3 3 2 3 3 2 2 3 2 3 3 3 3 3 4
6 6 5 5 5 5 5 4 3 3 3 3 3 2 2 2 2 2 2 3 2 3 1 2 3 3 3 2 2 3 3 2 3 2 3 2 2 3 3 3 3 3 4
5 5 5 5 5 5 5 4 4 3 2 1 2 2 2 2 2 3 3 3 3 3 2 3 1 3 4 3 2 2 3 4 4 2 2 2 3 3 4 4 3 3 4
5 5 5 5 5 5 5 5 4 3 2 1 2 2 2 2 3 3 3 3 3 3 2 3 2 4 3 4 3 3 3 3 5 5 4 3 3 3 3 4 3 3 3
5 4 4 5 4 5 5 5 5 4 3 2 2 2 3 2 2 3 3 3 3 3 3 3 3 3 3 4 4 4 4 4 4 4 5 5 4 3 3 3 4 3 3
Wind_Direction
100 95 98 105 110 109 114 120 123 125 126 124 123 124 126 125 123 124 124 121 123 121 121 120 117 118 119 120 119 118 119 123 129 128 127 127 129 131 135 144 157 131 126
110 105 104 106 111 112 113 120 123 123 124 124 124 124 126 126 126 124 125 126 124 124 125 124 121 120 121 121 121 120 121 122 127 129 136 139 136 137 139 144 107 110 131
115 115 116 106 113 114 113 116 121 121 122 123 124 123 124 126 127 126 127 127 126 126 127 128 127 125 123 122 120 120 121 119 124 141 172 154 132 135 140 135 123 130 133
120 117 106 109 116 114 112 112 118 119 118 119 120 121 121 122 123 124 125 126 124 124 126 129 130 129 128 124 123 122 122 124 137 177 181 124 129 127 139 139 142 142 140
117 111 107 112 115 115 114 113 116 118 118 119 119 119 118 119 122 125 126 126 124 124 124 126 128 127 128 129 128 126 126 135 168 204 121 124 124 130 144 146 147 146 147
114 110 107 111 114 116 115 115 115 116 118 119 118 117 115 115 118 123 126 125 122 122 124 123 126 120 122 127 130 134 140 160 212 152 136 141 127 135 148 156 158 159 159
111 110 113 112 114 117 118 118 117 118 119 120 119 117 115 113 114 115 117 118 117 121 128 121 120 121 123 128 135 137 146 195 234 138 146 136 120 138 158 166 168 168 169
110 114 116 118 115 117 121 120 120 120 121 121 119 119 116 115 114 112 113 114 114 118 122 123 122 125 128 130 135 144 169 235 209 162 158 139 124 155 170 176 179 180 182
111 114 117 124 128 126 120 118 120 122 124 122 119 120 118 116 116 116 115 113 114 116 124 128 126 127 136 140 146 164 190 239 252 172 167 137 136 166 181 189 190 190 191
115 113 114 109 116 128 127 124 124 127 128 127 126 126 127 133 132 133 137 118 121 122 125 133 133 138 151 160 168 188 211 233 223 176 162 121 146 176 192 198 200 198 196
119 117 122 124 127 123 121 126 140 141 140 147 143 145 162 149 138 148 104 116 129 134 136 135 142 157 183 178 181 197 222 230 182 193 135 114 156 185 200 204 205 206 206
133 135 130 126 126 124 121 126 137 139 139 147 131 144 141 122 113 107 117 128 137 154 163 157 181 201 220 188 176 199 218 213 217 191 125 135 169 199 212 214 214 212 212
139 138 136 130 126 123 127 127 123 130 137 142 130 141 133 142 138 142 143 151 160 172 166 160 196 206 218 230 242 224 238 253 242 216 128 144 178 206 218 221 221 221 219
140 137 131 132 138 129 119 124 145 143 142 130 128 144 142 143 146 125 177 119 160 149 128 191 204 188 267 255 257 255 244 251 250 242 129 153 186 209 221 224 223 225 224
143 143 140 143 138 142 138 195 145 133 134 129 136 139 154 159 158 141 149 155 221 147 161 195 240 254 257 248 259 247 258 268 260 252 161 169 193 212 223 225 223 225 225
158 148 148 161 154 161 170 170 144 144 136 140 142 130 168 160 138 157 170 191 219 229 20 258 221 239 256 259 258 246 252 259 250 255 252 183 190 204 216 225 229 232 231
160 151 158 164 162 167 176 184 168 169 156 144 138 149 176 176 158 212 213 213 206 205 219 255 268 252 247 248 246 245 244 252 252 250 259 258 209 196 205 220 231 235 236
162 159 168 169 160 165 172 195 192 181 150 152 165 155 174 195 199 227 238 236 251 249 241 234 250 269 275 272 264 260 251 238 245 244 245 247 258 245 200 204 226 236 241
169 167 170 169 168 167 167 175 172 169 175 177 180 182 182 210 222 230 236 261 248 247 255 275 288 292 283 283 269 251 257 246 242 246 251 247 248 258 256 182 205 225 237
168 168 170 168 168 173 173 170 170 172 188 192 186 180 213 216 220 243 216 227 256 248 257 276 286 278 281 284 287 291 270 259 246 240 245 233 230 243 253 261 224 209 213
170 173 174 176 169 179 180 186 178 173 178 186 194 179 210 223 219 240 264 221 257 262 279 284 286 267 279 306 285 277 247 226 239 237 239 248 234 240 250 256 261 271 213
175 178 179 184 180 189 179 189 195 187 188 183 191 173 208 214 233 225 236 254 252 256 256 284 293 302 306 288 298 298 283 206 215 214 223 226 251 257 251 249 257 259 273
179 183 182 182 186 194 190 192 183 187 204 187 189 184 195 218 232 260 249 266 269 266 264 273 279 280 290 283 288 299 305 325 313 200 228 232 247 269 267 260 245 251 257
176 176 180 179 190 192 196 202 204 211 211 191 202 175 196 215 243 245 247 254 268 277 277 269 294 287 278 279 252 261 291 314 296 296 234 212 229 251 273 281 281 257 254
166 171 173 177 187 191 198 197 210 221 220 207 212 181 228 217 237 249 243 248 256 266 279 292 287 282 275 282 287 283 277 260 261 282 291 295 271 262 260 264 273 273 264
157 163 164 169 186 195 202 204 212 224 234 239 235 224 231 223 223 234 239 245 253 267 267 265 270 265 279 287 287 286 281 280 278 277 283 284 288 286 275 271 263 262 258